DLH9TK EDDS-EDDF

Flight info

Callsign DLH9TK
Flight time 0h 26m
Altitude 22000
Route ETASA4B/25 ETASA T163 SPESA SPESA5B
Aircraft A319/M-SDE3FGHIRWY/LB1

Departure

Time 2026-05-05 19:54
Airport Stuttgart Airport (EDDS)

Arrival

Time 2026-05-05 20:20
Airport Frankfurt Main Airport (EDDF)
Time Latitude Longitude Altitude Speed Heading
2026-05-05 19:36 48.68995 9.19896 1308 ft 0 kts 344°
2026-05-05 19:45 48.68987 9.19899 1307 ft 4 kts 344°
2026-05-05 19:45 48.68965 9.19909 1306 ft 4 kts 328°
2026-05-05 19:45 48.68953 9.19936 1304 ft 4 kts 269°
2026-05-05 19:45 48.68958 9.19975 1303 ft 4 kts 243°
2026-05-05 19:46 48.68962 9.19985 1303 ft 1 kts 238°
2026-05-05 19:47 48.68961 9.19984 1303 ft 1 kts 238°
2026-05-05 19:47 48.68941 9.19935 1303 ft 10 kts 238°
2026-05-05 19:48 48.68864 9.19888 1301 ft 18 kts 165°
2026-05-05 19:48 48.68823 9.20027 1294 ft 18 kts 60°
2026-05-05 19:48 48.68875 9.20217 1291 ft 21 kts 69°
2026-05-05 19:48 48.68918 9.20443 1285 ft 24 kts 77°
2026-05-05 19:49 48.68967 9.20710 1279 ft 28 kts 74°
2026-05-05 19:49 48.69003 9.20903 1273 ft 30 kts 74°
2026-05-05 19:49 48.69080 9.21303 1267 ft 28 kts 74°
2026-05-05 19:49 48.69136 9.21604 1262 ft 31 kts 73°
2026-05-05 19:50 48.69202 9.21931 1252 ft 34 kts 75°
2026-05-05 19:50 48.69260 9.22256 1242 ft 30 kts 74°
2026-05-05 19:50 48.69319 9.22568 1235 ft 32 kts 74°
2026-05-05 19:50 48.69367 9.22818 1229 ft 22 kts 74°
2026-05-05 19:51 48.69412 9.23057 1226 ft 25 kts 74°
2026-05-05 19:51 48.69459 9.23307 1229 ft 24 kts 74°
2026-05-05 19:51 48.69503 9.23526 1246 ft 18 kts 72°
2026-05-05 19:51 48.69530 9.23670 1258 ft 10 kts 75°
2026-05-05 19:52 48.69543 9.23747 1264 ft 8 kts 75°
2026-05-05 19:52 48.69565 9.23865 1267 ft 14 kts 75°
2026-05-05 19:52 48.69599 9.24043 1273 ft 20 kts 73°
2026-05-05 19:52 48.69575 9.24251 1269 ft 22 kts 120°
2026-05-05 19:53 48.69434 9.24314 1197 ft 31 kts 194°
2026-05-05 19:53 48.69354 9.24103 1195 ft 20 kts 245°
2026-05-05 19:53 48.69278 9.23729 1203 ft 73 kts 254°
2026-05-05 19:53 48.69070 9.22633 1225 ft 141 kts 254°
2026-05-05 19:54 48.68790 9.21108 1764 ft 149 kts 255°
2026-05-05 19:54 48.68574 9.19574 2543 ft 152 kts 256°
2026-05-05 19:54 48.68271 9.17899 2959 ft 177 kts 252°
2026-05-05 19:54 48.67880 9.16012 3406 ft 199 kts 251°
2026-05-05 19:55 48.67444 9.13897 3914 ft 221 kts 252°
2026-05-05 19:55 48.67005 9.11613 4750 ft 231 kts 257°
2026-05-05 19:55 48.67035 9.09207 4749 ft 233 kts 284°
2026-05-05 19:55 48.67975 9.07108 5421 ft 242 kts 309°
2026-05-05 19:56 48.69473 9.05790 6461 ft 266 kts 339°
2026-05-05 19:56 48.71370 9.05304 7261 ft 282 kts 346°
2026-05-05 19:56 48.73280 9.04724 8224 ft 285 kts 340°
2026-05-05 19:56 48.75192 9.03828 9263 ft 289 kts 336°
2026-05-05 19:57 48.77108 9.02821 10228 ft 295 kts 339°
2026-05-05 19:57 48.78473 9.02346 10563 ft 314 kts 348°
2026-05-05 19:57 48.81563 9.02674 11076 ft 355 kts 14°
2026-05-05 19:57 48.83835 9.04343 11734 ft 370 kts 31°
2026-05-05 19:58 48.86042 9.06396 12591 ft 374 kts 27°
2026-05-05 19:58 48.88435 9.07982 13444 ft 377 kts 15°
2026-05-05 19:58 48.90999 9.08837 14227 ft 378 kts
2026-05-05 19:58 48.93626 9.09193 15012 ft 381 kts
2026-05-05 19:59 48.96273 9.09551 15801 ft 384 kts
2026-05-05 19:59 48.98952 9.09928 16578 ft 388 kts
2026-05-05 19:59 49.01622 9.10309 17321 ft 392 kts
2026-05-05 19:59 49.04352 9.10704 18071 ft 396 kts
2026-05-05 20:00 49.07109 9.11108 18726 ft 400 kts
2026-05-05 20:00 49.09893 9.11518 18843 ft 405 kts
2026-05-05 20:00 49.12708 9.11927 18157 ft 407 kts
2026-05-05 20:00 49.15538 9.12334 17482 ft 406 kts
2026-05-05 20:01 49.18339 9.12731 16874 ft 403 kts
2026-05-05 20:01 49.21124 9.13125 16287 ft 400 kts
2026-05-05 20:01 49.23877 9.13514 15713 ft 396 kts
2026-05-05 20:01 49.26617 9.13903 15145 ft 393 kts
2026-05-05 20:02 49.29044 9.14249 14607 ft 390 kts
2026-05-05 20:02 49.31707 9.14631 14054 ft 387 kts
2026-05-05 20:02 49.34370 9.15012 13474 ft 384 kts
2026-05-05 20:02 49.37025 9.15204 12845 ft 378 kts 355°
2026-05-05 20:03 49.39638 9.15021 12228 ft 374 kts 354°
2026-05-05 20:03 49.42218 9.14785 11602 ft 370 kts 354°
2026-05-05 20:03 49.44780 9.14554 10974 ft 367 kts 354°
2026-05-05 20:03 49.47323 9.14329 10344 ft 364 kts 354°
2026-05-05 20:04 49.49825 9.14118 9933 ft 355 kts 354°
2026-05-05 20:04 49.52236 9.13926 9804 ft 338 kts 354°
2026-05-05 20:04 49.54515 9.13757 9819 ft 318 kts 354°
2026-05-05 20:04 49.56670 9.13610 9823 ft 304 kts 354°
2026-05-05 20:05 49.58775 9.13474 9824 ft 301 kts 354°
2026-05-05 20:05 49.60865 9.13336 9824 ft 300 kts 354°
2026-05-05 20:05 49.62960 9.13180 9826 ft 301 kts 354°
2026-05-05 20:05 49.65052 9.13012 9824 ft 301 kts 354°
2026-05-05 20:06 49.67143 9.12846 9822 ft 301 kts 354°
2026-05-05 20:06 49.69211 9.12677 9823 ft 301 kts 354°
2026-05-05 20:06 49.71303 9.12503 9823 ft 301 kts 354°
2026-05-05 20:06 49.73425 9.12330 9820 ft 301 kts 354°
2026-05-05 20:07 49.75492 9.12163 9823 ft 301 kts 354°
2026-05-05 20:07 49.77583 9.11994 9822 ft 301 kts 354°
2026-05-05 20:07 49.79678 9.11825 9822 ft 301 kts 354°
2026-05-05 20:07 49.81776 9.11655 9821 ft 301 kts 354°
2026-05-05 20:08 49.83870 9.11487 9831 ft 301 kts 354°
2026-05-05 20:08 49.85957 9.11325 9818 ft 299 kts 354°
2026-05-05 20:08 49.88022 9.11169 9470 ft 296 kts 354°
2026-05-05 20:08 49.90072 9.11011 9049 ft 294 kts 354°
2026-05-05 20:09 49.92105 9.10852 8650 ft 291 kts 354°
2026-05-05 20:09 49.94122 9.10685 8256 ft 288 kts 354°
2026-05-05 20:09 49.96119 9.10512 7853 ft 286 kts 354°
2026-05-05 20:09 49.98101 9.10337 7446 ft 284 kts 354°
2026-05-05 20:10 50.00072 9.10159 7039 ft 282 kts 354°
2026-05-05 20:10 50.02004 9.09982 6654 ft 280 kts 354°
2026-05-05 20:10 50.03947 9.09798 6257 ft 279 kts 354°
2026-05-05 20:10 50.05873 9.09613 5838 ft 277 kts 354°
2026-05-05 20:11 50.07795 9.09426 5398 ft 276 kts 354°
2026-05-05 20:11 50.09705 9.09240 4974 ft 274 kts 354°
2026-05-05 20:11 50.11599 9.09055 4550 ft 272 kts 354°
2026-05-05 20:11 50.13477 9.08865 4235 ft 265 kts 354°
2026-05-05 20:12 50.15266 9.08689 4103 ft 248 kts 354°
2026-05-05 20:12 50.16928 9.08477 3998 ft 232 kts 346°
2026-05-05 20:12 50.18216 9.07279 3970 ft 211 kts 303°
2026-05-05 20:12 50.18564 9.05173 3981 ft 203 kts 259°
2026-05-05 20:13 50.17849 9.03347 3986 ft 202 kts 220°
2026-05-05 20:13 50.16737 9.01997 3984 ft 202 kts 220°
2026-05-05 20:13 50.15655 9.00589 3987 ft 202 kts 221°
2026-05-05 20:13 50.14575 8.99179 3988 ft 202 kts 221°
2026-05-05 20:14 50.13557 8.97675 3984 ft 202 kts 232°
2026-05-05 20:14 50.12848 8.95794 3994 ft 202 kts 245°
2026-05-05 20:14 50.12313 8.93780 3993 ft 201 kts 248°
2026-05-05 20:14 50.11823 8.91736 3991 ft 199 kts 249°
2026-05-05 20:15 50.11374 8.89828 4008 ft 181 kts 249°
2026-05-05 20:15 50.10957 8.88051 3993 ft 171 kts 249°
2026-05-05 20:15 50.10552 8.86327 3982 ft 169 kts 249°
2026-05-05 20:15 50.10147 8.84608 3834 ft 168 kts 249°
2026-05-05 20:16 50.09743 8.82891 3632 ft 169 kts 249°
2026-05-05 20:16 50.09340 8.81181 3416 ft 168 kts 249°
2026-05-05 20:16 50.09075 8.80057 3265 ft 168 kts 250°
2026-05-05 20:16 50.08672 8.78348 3056 ft 168 kts 249°
2026-05-05 20:17 50.08270 8.76646 2825 ft 167 kts 249°
2026-05-05 20:17 50.07869 8.74948 2602 ft 167 kts 249°
2026-05-05 20:17 50.07465 8.73242 2373 ft 161 kts 249°
2026-05-05 20:17 50.07120 8.71703 2108 ft 143 kts 252°
2026-05-05 20:18 50.06935 8.70249 1845 ft 131 kts 261°
2026-05-05 20:18 50.06839 8.68885 1687 ft 124 kts 262°
2026-05-05 20:18 50.06640 8.67600 1504 ft 122 kts 249°
2026-05-05 20:18 50.06345 8.66372 1394 ft 121 kts 249°
2026-05-05 20:19 50.06066 8.65136 1303 ft 122 kts 248°
2026-05-05 20:19 50.05752 8.63903 1158 ft 124 kts 247°
2026-05-05 20:19 50.05459 8.62648 960 ft 123 kts 250°
2026-05-05 20:19 50.05158 8.61394 801 ft 124 kts 248°
2026-05-05 20:20 50.04857 8.60134 631 ft 125 kts 248°
2026-05-05 20:20 50.04557 8.58873 455 ft 124 kts 248°
2026-05-05 20:20 50.04262 8.57661 366 ft 109 kts 250°
2026-05-05 20:20 50.04120 8.57046 365 ft 33 kts 250°
2026-05-05 20:21 50.04039 8.56718 358 ft 34 kts 249°
2026-05-05 20:21 50.03993 8.56337 352 ft 37 kts 280°
2026-05-05 20:21 50.04075 8.56129 351 ft 8 kts 29°
2026-05-05 20:21 50.04110 8.56193 354 ft 8 kts 58°
2026-05-05 20:22 50.04129 8.56275 355 ft 9 kts 73°
2026-05-05 20:22 50.04149 8.56369 355 ft 9 kts 70°
2026-05-05 20:22 50.04177 8.56485 358 ft 17 kts 70°
2026-05-05 20:22 50.04234 8.56727 361 ft 26 kts 71°
2026-05-05 20:23 50.04298 8.56993 360 ft 26 kts 69°
2026-05-05 20:23 50.04362 8.57260 363 ft 27 kts 70°
2026-05-05 20:23 50.04427 8.57534 362 ft 27 kts 70°
2026-05-05 20:23 50.04493 8.57809 367 ft 27 kts 70°
2026-05-05 20:24 50.04560 8.58093 366 ft 29 kts 69°
2026-05-05 20:24 50.04628 8.58375 369 ft 27 kts 69°
2026-05-05 20:24 50.04695 8.58654 370 ft 27 kts 69°
2026-05-05 20:24 50.04757 8.58891 371 ft 24 kts 70°
2026-05-05 20:25 50.04815 8.59136 369 ft 25 kts 69°
2026-05-05 20:25 50.04881 8.59358 368 ft 20 kts 44°
2026-05-05 20:25 50.05023 8.59322 366 ft 23 kts 338°
2026-05-05 20:25 50.05064 8.59156 360 ft 5 kts 229°
2026-05-05 20:26 50.05052 8.59177 364 ft 3 kts 127°
2026-05-05 20:26 50.05039 8.59192 360 ft 2 kts 150°
2026-05-05 20:26 50.05020 8.59204 361 ft 4 kts 160°
2026-05-05 20:26 50.05001 8.59215 366 ft 1 kts 160°
2026-05-05 20:27 50.04998 8.59216 365 ft 0 kts 160°